Location: Czu?�w
(50.1404°N, 18.9919°E)
Time: 03:16:20
(UTC+00:00)

Lacrosse 5 - Pass Details

Date: 27 October 2020
Orbit: 716 x 723 km, 57.0° (Epoch: 06 November)

Event Time Altitude Azimuth Distance (km) Brightness Sun altitude
Rises 16:33:12 0° 277° (W) 3,121 6.9 -10.9°
Reaches altitude 10° 16:35:44 10° 285° (WNW) 2,201 5.6 -11.3°
Maximum altitude 16:40:29 39° 354° (N) 1,077 2.8 -12.0°
Enters shadow 16:44:18 15° 58° (ENE) 1,888 3.5 -12.6°
